Location: Rowland
(34.5359°N, 79.2929°W)
Time: 14:55:07
(UTC+00:00)

SR - Pass Details

Date: 06 October 2022
Orbit: 577 x 875 km, 66.7° (Epoch: 28 November)

Event Time Altitude Azimuth Distance (km) Brightness Sun altitude
Rises 02:26:16 0° 249° (WSW) 3,431 ? -42.9°
Reaches altitude 10° 02:29:31 10° 267° (W) 2,516 ? -43.5°
Enters shadow 02:32:00 17° 291° (WNW) 2,065 ? -43.9°
Maximum altitude 02:33:31 19° 310° (NW) 1,980 - -44.2°
Drops below altitude 10° 02:37:32 10° 354° (N) 2,519 - -44.9°
Sets 02:40:49 0° 12° (NNE) 3,436 - -45.5°
